User: anonymous   Login
Location: San Antonio
(29.4240°N, 98.4930°W)
Time: 02:39:42
(UTC-05:00)
Language:

deb Explorer IX - Orbit

View from above orbital plane
View from above orbital plane
View from above satellite
View from above satellite

Ground track
Ground track

The orbit data is extracted from the following two-line orbital elements,

1    85U 61004C   24197.13723525  .00026646  00000-0  34396-2 0  9996
2    85  38.7375 215.0169 0260577 154.2193 207.1815 14.59365707144431
Epoch (UTC): 15 July 2024 03:17:37
Eccentricity: 0.0260577
inclination: 38.7375°
perigee height: 511 km
apogee height: 879 km
right ascension of ascending node: 215.0169°
argument of perigee: 154.2193°
revolutions per day: 14.59365707
mean anomaly at epoch: 207.1815°
orbit number at epoch: 14443

The dashed part of the orbit path shows where the satellite is in the earth's shadow,  

DLR